Weather History for Dayton, OH

Change the Weather History Date:

Monday, June 10, 2013

  Actual Average Record
Temperature  
Mean Temperature 72 °F 69 °F  
Max Temperature 79 °F 79 °F 94 °F (1947)
Min Temperature 65 °F 60 °F 43 °F (1977)
Degree Days  
Heating Degree Days 0 1  
Month to date heating degree days 11 16  
Since 1 June heating degree days 11 16  
Since 1 July heating degree days 5457 5636  
Cooling Degree Days 7 5  
Month to date cooling degree days 29 45  
Year to date cooling degree days 160 115  
Since 1 June cooling degree days 29 45  
Growing Degree Days 22 (Base 50)    
Moisture  
Dew Point 64 °F    
Average Humidity 79    
Maximum Humidity 100    
Minimum Humidity 58    
Precipitation  
Precipitation 0.27 in 0.13 in 2.24 in (1903)
Month to date precipitation 0.52 1.43  
Year to date precipitation 14.82 18.47  
Snow  
Snow 0.00 in 0.00 in 0.00 in ()
Month to date snowfall 0.0 0.0  
Since 1 June snowfall 0.0 0.0  
Since 1 July snowfall 36.3 23.3  
Snow Depth 0.00 in    
Sea Level Pressure  
Sea Level Pressure 29.84 in    
Wind  
Wind Speed 10 mph (SSW)    
Max Wind Speed 20 mph    
Max Gust Speed 23 mph    
Visibility 8 miles    
Events Rain    
T = Trace of Precipitation, MM = Missing Value Source: NWS Daily Summary

Daily Weather History Graph

Daily Weather History Graph

Search for Another Location

Airport:

Trip Planner

Search our weather history database for the weather conditions in past years. The results will help you decide how hot, cold, wet, or windy it might be!

Date:

Astronomy

Jun. 10, 2013 Rise Set
Actual Time 6:07 AM EDT 9:05 PM EDT
Civil Twilight 5:35 AM EDT 9:37 PM EDT
Nautical Twilight 4:54 AM EDT 10:18 PM EDT
Astronomical Twilight 4:06 AM EDT 11:06 PM EDT
Moon 7:55 AM EDT (6/10) 10:31 PM EDT (6/10)
Length of Visible Light 16h 02m
Length of Day
14h 57m
Waxing Crescent, 4% of the Moon is Illuminated
Jun 10
Waxing Crescent
Jun 16
First Quarter
Jun 23
Full
Jun 30
Last Quarter
Jul 8
New

Hourly Weather History & Observations

Time (EDT) Temp. Dew Point Humidity Pressure Visibility Wind Dir Wind Speed Gust Speed Precip Events Conditions
12:56 AM 70.0 °F 64.0 °F 81% 29.91 in 10.0 mi SSE 11.5 mph - N/A   Overcast
1:56 AM 70.0 °F 64.0 °F 81% 29.88 in 10.0 mi SSE 11.5 mph - N/A   Overcast
2:56 AM 69.1 °F 64.0 °F 84% 29.87 in 10.0 mi SSE 11.5 mph - 0.00 in   Mostly Cloudy
3:56 AM 69.1 °F 64.0 °F 84% 29.85 in 10.0 mi SSE 9.2 mph - N/A   Mostly Cloudy
4:08 AM 69.8 °F 64.4 °F 83% 29.86 in 10.0 mi SSE 9.2 mph - N/A   Mostly Cloudy
4:56 AM 68.0 °F 64.9 °F 90% 29.83 in 6.0 mi SSE 9.2 mph - 0.03 in Rain Rain
5:03 AM 68.0 °F 64.4 °F 88% 29.85 in 6.0 mi SSE 6.9 mph - 0.00 in Rain Light Rain
5:39 AM 66.2 °F 64.4 °F 94% 29.84 in 5.0 mi SSE 8.1 mph - 0.03 in Rain Light Rain
5:46 AM 66.2 °F 66.2 °F 100% 29.84 in 5.0 mi SE 8.1 mph - 0.04 in Rain Rain
5:56 AM 66.9 °F 66.0 °F 97% 29.83 in 5.0 mi SSE 9.2 mph - 0.06 in Rain Light Rain
6:05 AM 66.2 °F 66.2 °F 100% 29.85 in 4.0 mi SSE 6.9 mph - 0.01 in Rain Light Rain
6:13 AM 66.2 °F 66.2 °F 100% 29.84 in 5.0 mi SSE 6.9 mph - 0.02 in Rain Light Rain
6:37 AM 66.2 °F 66.2 °F 100% 29.85 in 8.0 mi SSE 5.8 mph - 0.02 in Rain Light Rain
6:56 AM 66.9 °F 64.9 °F 93% 29.83 in 7.0 mi South 5.8 mph - 0.04 in Rain Light Rain
7:08 AM 66.2 °F 64.4 °F 94% 29.85 in 6.0 mi South 6.9 mph - 0.00 in Rain Light Rain
7:48 AM 66.2 °F 64.4 °F 94% 29.85 in 8.0 mi South 6.9 mph - 0.04 in Rain Light Rain
7:56 AM 66.9 °F 64.9 °F 93% 29.83 in 6.0 mi South 8.1 mph - 0.05 in Rain Light Rain
8:11 AM 66.2 °F 64.4 °F 94% 29.85 in 5.0 mi South 6.9 mph - 0.02 in Rain Light Rain
8:22 AM 66.2 °F 64.4 °F 94% 29.84 in 5.0 mi South 6.9 mph - 0.03 in Rain Light Rain
8:45 AM 66.2 °F 64.4 °F 94% 29.86 in 6.0 mi South 10.4 mph - 0.06 in Rain Light Rain
8:56 AM 66.0 °F 64.9 °F 96% 29.83 in 8.0 mi South 6.9 mph - 0.06 in Rain Light Rain
9:28 AM 66.2 °F 64.4 °F 94% 29.85 in 10.0 mi South 8.1 mph - 0.00 in   Overcast
9:56 AM 66.0 °F 64.0 °F 93% 29.83 in 10.0 mi South 8.1 mph - 0.00 in   Overcast
10:25 AM 66.2 °F 64.4 °F 94% 29.85 in 10.0 mi SSW 9.2 mph - N/A   Overcast
10:56 AM 66.9 °F 64.9 °F 93% 29.83 in 10.0 mi SSW 10.4 mph - 0.01 in   Overcast
11:56 AM 69.1 °F 64.9 °F 87% 29.83 in 10.0 mi SSW 11.5 mph - 0.02 in   Overcast
12:38 PM 73.4 °F 66.2 °F 78% 29.84 in 10.0 mi SW 11.5 mph - N/A   Mostly Cloudy
12:44 PM 71.6 °F 64.4 °F 78% 29.84 in 10.0 mi SW 11.5 mph - N/A   Mostly Cloudy
12:56 PM 73.9 °F 64.9 °F 73% 29.82 in 10.0 mi SW 10.4 mph - N/A   Mostly Cloudy
1:49 PM 75.2 °F 62.6 °F 65% 29.83 in 10.0 mi WSW 12.7 mph 19.6 mph N/A   Mostly Cloudy
1:56 PM 75.9 °F 61.0 °F 60% 29.81 in 10.0 mi SW 16.1 mph 21.9 mph N/A   Mostly Cloudy
2:56 PM 79.0 °F 62.1 °F 56% 29.79 in 10.0 mi WSW 9.2 mph - N/A   Mostly Cloudy
3:56 PM 73.9 °F 61.0 °F 64% 29.80 in 10.0 mi WSW 12.7 mph - 0.00 in Rain Light Rain
4:56 PM 73.0 °F 60.1 °F 64% 29.80 in 10.0 mi SSW 13.8 mph - 0.00 in   Mostly Cloudy
5:56 PM 73.4 °F 60.8 °F 65% 29.81 in 10.0 mi SW 13.8 mph 19.6 mph N/A   Mostly Cloudy
6:56 PM 71.1 °F 61.0 °F 70% 29.81 in 10.0 mi WSW 9.2 mph - N/A   Overcast
7:56 PM 71.1 °F 63.0 °F 75% 29.81 in 10.0 mi WSW 9.2 mph - 0.00 in   Mostly Cloudy
8:56 PM 68.0 °F 63.0 °F 84% 29.82 in 10.0 mi SW 9.2 mph - N/A   Scattered Clouds
9:56 PM 66.9 °F 63.0 °F 87% 29.83 in 10.0 mi SW 8.1 mph - N/A   Scattered Clouds
10:56 PM 66.0 °F 63.0 °F 90% 29.85 in 10.0 mi WSW 9.2 mph - N/A   Partly Cloudy
11:56 PM 66.9 °F 63.0 °F 87% 29.85 in 10.0 mi WSW 8.1 mph - N/A   Mostly Cloudy